Location: Chervonnoye
(48.6000°N, 34.4000°E)
Time: 19:01:55
(UTC+00:00)

RS-44 - Pass Details

Date: 08 December 2021
Orbit: 1175 x 1510 km, 82.5° (Epoch: 18 January)

Event Time Altitude Azimuth Distance (km) Brightness Sun altitude
Rises 01:20:06 0° 356° (N) 4,167 ? -38.8°
Reaches altitude 10° 01:24:11 10° 18° (NNE) 3,251 ? -38.1°
Maximum altitude 01:28:39 16° 54° (NE) 2,866 ? -37.4°
Drops below altitude 10° 01:33:16 10° 90° (E) 3,382 ? -36.6°
Sets 01:37:37 0° 111° (ESE) 4,421 ? -35.9°
